Погода в Алхазурове

Россия / Чеченская Республика     43°03′50″N   45°39′09″E
темп.,
°C
ветер,
м/с
пор.,
м/с
влажн.,
%
обл.,
%
осадки,
мм/ч
давл.,
гПа
погр.,
м
16 октября, сб
сб1600:00+12ююз117754 0.0 101911
03:00+11ю11745 0.0 101812
06:00+11ю21735 0.0 101815
09:00+16с215864 0.0 1016263
12:00+18с225526 0.0 1015602
15:00+18ссз215993 0.4 1013606
18:00+13ю21791 0.6 101413
21:00+13ююв11814 0.8 101311
17 октября, вс
вс1700:00+12ю2278100 0.0 101313
03:00+12ю217798 0.1 101313
06:00+11ю22864 0.5 101415
09:00+16с11675 0.8 1013274
12:00+19с21590 0.0 1012735
15:00+19с215833 0.0 1011827
18:00+14ю1178100 0.1 101311
21:00+14ююз1182100 0.2 101314
18 октября, пн
пн1800:00+13ю2286100 0.4 101443
03:00+13ю1185100 0.4 101311
06:00+12ю218878 0.2 101419
09:00+14ссз118092 0.3 1014224
12:00+14сз457897 0.7 1015823
15:00+11зюз1291100 1.6 1016276
18:00+12ю1189100 1.1 101739
21:00+10ю118979 1.1 101713
19 октября, вт
вт1900:00+11зюз118897 0.0 101814
03:00+11ююв1189100 0.0 101827
06:00+10зюз1294100 1.6 101869
09:00+10ююв2386100 2.6 101999
12:00+15юв016362 0.0 1016682
15:00+15ссв126099 0.1 10151069
18:00+12ююз1178100 0.2 101615
21:00+8сз2697100 4.4 1018424
20 октября, ср
ср2000:00+8ссз2498100 3.3 1017524
03:00+6зсз3696100 10.5 1020655
06:00+6ю1288100 3.3 1020154
09:00+5зсз3794100 5.8 1023971
12:00+6зсз3687100 2.2 1024993
15:00+5зсз2692100 4.6 1026827
18:00+3юз129496 2.2 1030158
21:00+3ю239399 2.3 1030140